• In Hungary
  • List of Countries
  • For 7 days
  • Water Temperature
  • Satellite Maps
  • Weather Map
  • News
  • Weather Widgets
  • user-avatar
    Login

    Hourly Weather Jaú

    Today, 23 February, Friday

    Time Temperature Precipitation Wind Pressure Humidity
    00:00 +21°C° 0 mm 3 mps 757 mmHg 60%
    01:00 +21°C° 0 mm 3 mps 757 mmHg 60%
    02:00 +21°C° 0 mm 2 mps 757 mmHg 60%
    03:00 +21°C° 0 mm 1 mps 757 mmHg 61%
    04:00 +21°C° 0 mm 1 mps 757 mmHg 60%
    05:00 +21°C° 0 mm 1 mps 757 mmHg 60%
    06:00 +21°C° 0 mm 1 mps 757 mmHg 60%
    07:00 +22°C° 0 mm 1 mps 758 mmHg 54%
    08:00 +24°C° 0 mm 1 mps 758 mmHg 49%
    09:00 +25°C° 0 mm 1 mps 758 mmHg 36%
    10:00 +26°C° 0 mm 2 mps 758 mmHg 34%
    11:00 +27°C° 0 mm 2 mps 758 mmHg 32%
    12:00 +28°C° 0 mm 2 mps 757 mmHg 30%
    13:00 +28°C° 0 mm 3 mps 757 mmHg 32%
    14:00 +28°C° 0 mm 4 mps 757 mmHg 34%
    15:00 +27°C° 0 mm 5 mps 756 mmHg 39%
    16:00 +27°C° 0 mm 5 mps 757 mmHg 43%
    17:00 +26°C° 0 mm 5 mps 757 mmHg 47%
    18:00 +25°C° 0 mm 5 mps 757 mmHg 50%
    19:00 +25°C° 0 mm 4 mps 757 mmHg 51%
    20:00 +25°C° 0 mm 4 mps 757 mmHg 51%
    21:00 +23°C° 0 mm 4 mps 757 mmHg 51%
    22:00 +23°C° 0 mm 4 mps 757 mmHg 52%
    23:00 +23°C° 0 mm 4 mps 756 mmHg 52%

    Tomorrow, 24 February, Saturday

    Time Temperature Precipitation Wind Pressure Humidity
    00:00 +23°C° 0 mm 4 mps 756 mmHg 52%
    01:00 +22°C° 0 mm 4 mps 756 mmHg 54%
    02:00 +22°C° 0 mm 3 mps 756 mmHg 56%
    03:00 +22°C° 0 mm 3 mps 756 mmHg 58%
    04:00 +22°C° 0 mm 3 mps 756 mmHg 59%
    05:00 +22°C° 0 mm 3 mps 756 mmHg 61%
    06:00 +22°C° 0 mm 4 mps 757 mmHg 63%
    07:00 +22°C° 0 mm 4 mps 757 mmHg 58%
    08:00 +23°C° 0 mm 4 mps 757 mmHg 53%
    09:00 +25°C° 0 mm 5 mps 758 mmHg 49%
    10:00 +25°C° 0 mm 4 mps 758 mmHg 47%
    11:00 +25°C° 0 mm 4 mps 757 mmHg 45%
    12:00 +26°C° 0 mm 4 mps 757 mmHg 43%
    13:00 +25°C° 0.2 mm 4 mps 757 mmHg 44%
    14:00 +25°C° 0.2 mm 3 mps 757 mmHg 46%
    15:00 +24°C° 0.2 mm 3 mps 757 mmHg 48%
    16:00 +22°C° 0.5 mm 3 mps 757 mmHg 53%
    17:00 +21°C° 0.5 mm 3 mps 757 mmHg 58%
    18:00 +21°C° 0.5 mm 3 mps 757 mmHg 64%
    19:00 +20°C° 0.4 mm 3 mps 757 mmHg 67%
    20:00 +20°C° 0.4 mm 2 mps 757 mmHg 71%
    21:00 +20°C° 0.4 mm 2 mps 757 mmHg 74%
    22:00 +19°C° 1.4 mm 2 mps 757 mmHg 77%
    23:00 +19°C° 1.4 mm 2 mps 757 mmHg 80%

    Day after tomorrow, 25 February, Sunday

    Time Temperature Precipitation Wind Pressure Humidity
    00:00 +19°C° 1.4 mm 2 mps 757 mmHg 83%
    01:00 +19°C° 1 mm 2 mps 757 mmHg 84%
    02:00 +19°C° 1 mm 3 mps 757 mmHg 85%
    03:00 +19°C° 1 mm 3 mps 757 mmHg 86%
    04:00 +19°C° 0.1 mm 4 mps 757 mmHg 84%
    05:00 +19°C° 0.1 mm 4 mps 757 mmHg 82%
    06:00 +19°C° 0.1 mm 5 mps 757 mmHg 81%
    07:00 +20°C° 0 mm 5 mps 758 mmHg 76%
    08:00 +21°C° 0 mm 4 mps 758 mmHg 71%
    09:00 +21°C° 0 mm 4 mps 759 mmHg 65%
    10:00 +22°C° 0.1 mm 4 mps 759 mmHg 62%
    11:00 +24°C° 0.1 mm 3 mps 759 mmHg 59%
    12:00 +25°C° 0.1 mm 3 mps 759 mmHg 55%
    13:00 +25°C° 0.2 mm 3 mps 758 mmHg 54%
    14:00 +25°C° 0.2 mm 3 mps 758 mmHg 53%
    15:00 +26°C° 0.2 mm 3 mps 758 mmHg 53%
    16:00 +25°C° 0 mm 3 mps 758 mmHg 55%
    17:00 +25°C° 0 mm 2 mps 758 mmHg 57%
    18:00 +24°C° 0 mm 2 mps 758 mmHg 59%
    19:00 +24°C° 0 mm 2 mps 759 mmHg 59%
    20:00 +24°C° 0 mm 2 mps 759 mmHg 59%
    21:00 +24°C° 0 mm 2 mps 760 mmHg 60%
    22:00 +22°C° 0 mm 3 mps 760 mmHg 63%
    23:00 +22°C° 0 mm 3 mps 760 mmHg 67%

    26 February, Monday

    Time Temperature Precipitation Wind Pressure Humidity
    00:00 +21°C° 0 mm 3 mps 760 mmHg 70%
    01:00 +21°C° 0 mm 3 mps 760 mmHg 72%
    02:00 +21°C° 0 mm 3 mps 759 mmHg 74%
    03:00 +20°C° 0 mm 3 mps 759 mmHg 76%
    04:00 +20°C° 0 mm 3 mps 759 mmHg 77%
    05:00 +20°C° 0 mm 3 mps 760 mmHg 79%
    06:00 +20°C° 0 mm 2 mps 760 mmHg 81%
    07:00 +21°C° 0 mm 3 mps 760 mmHg 76%
    08:00 +21°C° 0 mm 3 mps 761 mmHg 72%
    09:00 +22°C° 0 mm 3 mps 761 mmHg 67%
    10:00 +24°C° 0 mm 3 mps 761 mmHg 61%
    11:00 +25°C° 0 mm 3 mps 760 mmHg 55%
    12:00 +26°C° 0 mm 3 mps 760 mmHg 49%
    13:00 +26°C° 0 mm 3 mps 759 mmHg 46%
    14:00 +27°C° 0 mm 3 mps 758 mmHg 44%
    15:00 +27°C° 0 mm 3 mps 758 mmHg 41%
    16:00 +27°C° 0 mm 4 mps 758 mmHg 44%
    17:00 +26°C° 0 mm 5 mps 758 mmHg 47%
    18:00 +25°C° 0 mm 5 mps 758 mmHg 51%
    19:00 +24°C° 0 mm 6 mps 759 mmHg 52%
    20:00 +24°C° 0 mm 6 mps 759 mmHg 53%
    21:00 +23°C° 0 mm 7 mps 759 mmHg 54%
    22:00 +23°C° 0 mm 7 mps 759 mmHg 55%
    23:00 +23°C° 0 mm 7 mps 759 mmHg 57%

    27 February, Tuesday

    Time Temperature Precipitation Wind Pressure Humidity
    00:00 +22°C° 0 mm 8 mps 758 mmHg 58%
    01:00 +22°C° 0 mm 7 mps 758 mmHg 59%
    02:00 +22°C° 0 mm 7 mps 757 mmHg 61%
    03:00 +22°C° 0 mm 6 mps 757 mmHg 62%
    04:00 +22°C° 0 mm 6 mps 757 mmHg 63%
    05:00 +21°C° 0 mm 6 mps 758 mmHg 64%
    06:00 +21°C° 0 mm 6 mps 758 mmHg 66%
    07:00 +22°C° 0.1 mm 6 mps 758 mmHg 61%
    08:00 +23°C° 0.1 mm 6 mps 759 mmHg 56%
    09:00 +25°C° 0.1 mm 5 mps 760 mmHg 51%
    10:00 +27°C° 0 mm 6 mps 759 mmHg 45%
    11:00 +28°C° 0 mm 6 mps 759 mmHg 39%
    12:00 +29°C° 0 mm 6 mps 759 mmHg 33%
    13:00 +29°C° 0 mm 6 mps 758 mmHg 32%
    14:00 +30°C° 0 mm 6 mps 757 mmHg 31%
    15:00 +30°C° 0 mm 6 mps 757 mmHg 29%
    16:00 +29°C° 0 mm 6 mps 757 mmHg 33%
    17:00 +28°C° 0 mm 6 mps 757 mmHg 37%
    18:00 +27°C° 0 mm 6 mps 757 mmHg 41%
    19:00 +26°C° 0 mm 7 mps 757 mmHg 46%
    20:00 +24°C° 0 mm 7 mps 758 mmHg 51%
    21:00 +24°C° 0 mm 7 mps 758 mmHg 56%
    22:00 +23°C° 0 mm 7 mps 757 mmHg 57%
    23:00 +23°C° 0 mm 6 mps 757 mmHg 59%

    28 February, Wednesday

    Time Temperature Precipitation Wind Pressure Humidity
    00:00 +23°C° 0 mm 6 mps 757 mmHg 60%
    01:00 +23°C° 0 mm 6 mps 756 mmHg 60%
    02:00 +22°C° 0 mm 5 mps 756 mmHg 60%
    03:00 +22°C° 0 mm 5 mps 756 mmHg 60%
    04:00 +22°C° 0.2 mm 5 mps 756 mmHg 62%
    05:00 +22°C° 0.2 mm 6 mps 756 mmHg 64%
    06:00 +22°C° 0.2 mm 6 mps 757 mmHg 66%
    07:00 +23°C° 0.1 mm 6 mps 757 mmHg 60%
    08:00 +24°C° 0.1 mm 7 mps 757 mmHg 55%
    09:00 +26°C° 0.1 mm 7 mps 758 mmHg 50%
    10:00 +27°C° 0.3 mm 6 mps 757 mmHg 46%
    11:00 +28°C° 0.3 mm 6 mps 757 mmHg 42%
    12:00 +30°C° 0.3 mm 5 mps 757 mmHg 39%
    13:00 +29°C° 0.4 mm 6 mps 756 mmHg 42%
    14:00 +28°C° 0.4 mm 6 mps 756 mmHg 46%
    15:00 +28°C° 0.4 mm 7 mps 755 mmHg 50%
    16:00 +27°C° 0 mm 8 mps 755 mmHg 55%
    17:00 +26°C° 0 mm 8 mps 755 mmHg 60%
    18:00 +24°C° 0 mm 9 mps 755 mmHg 65%
    19:00 +24°C° 0 mm 9 mps 755 mmHg 65%
    20:00 +24°C° 0 mm 10 mps 755 mmHg 65%
    21:00 +23°C° 0 mm 10 mps 756 mmHg 65%
    22:00 +23°C° 0.1 mm 9 mps 755 mmHg 66%
    23:00 +23°C° 0.1 mm 8 mps 755 mmHg 66%
    Show more